Simultaneous Nadir Overpasses (SNOs) Predictions

Prediction of SNOs between GOES-17 and METOP-C Satellite Orbit:

Table of predicted SNOs for the next 14.0 days since TLE Epoch: 2/18/2023
Index Date Time (GOES-17) GOES-17 Lat,Lon METOP-C Lat,Lon Distance(km) Time Diff (sec)
1 02/18/2023 16:37:43 -0.01,-104.69 0.49,-107.04 266.70 80
2 02/19/2023 16:19:44 -0.01,-104.69 -0.62,-102.04 302.52 80
3 02/21/2023 04:36:04 0.01,-104.67 -0.45,-106.63 224.27 80
4 02/22/2023 04:18:04 0.00,-104.67 0.66,-101.64 345.33 80
5 02/23/2023 16:34:16 -0.01,-104.70 0.33,-106.20 170.63 80
6 02/24/2023 16:16:16 -0.00,-104.71 -0.78,-101.20 399.01 80
7 02/26/2023 04:32:36 0.01,-104.68 -0.25,-105.80 127.31 80
8 02/27/2023 04:14:37 0.01,-104.69 0.87,-100.81 442.30 80
9 02/28/2023 16:30:48 -0.02,-104.72 0.12,-105.37 73.92 80
10 03/01/2023 16:12:49 -0.02,-104.72 -1.01,-100.38 495.66 80
11 03/03/2023 04:29:08 0.02,-104.70 -0.06,-104.96 30.55 80
